Date,TemperatureHighF,TemperatureAvgF,TemperatureLowF,DewpointHighF,DewpointAvgF,DewpointLowF,HumidityHigh,HumidityAvg,HumidityLow,PressureMaxIn,PressureMinIn,WindSpeedMaxMPH,WindSpeedAvgMPH,GustSpeedMaxMPH,PrecipitationSumIn
2013-1-1,50,39,0,37,34,0,94,80,53,30.27,30.17,9,2,11,0.00
2013-1-2,55,39,0,37,29,0,85,67,39,30.27,30.16,5,2,10,0.00
2013-1-3,59,43,32,40,32,26,83,66,37,30.28,30.17,8,2,11,0.00
2013-1-4,56,44,33,36,32,26,80,63,42,30.30,30.19,7,2,9,0.00
2013-1-5,60,49,37,39,30,22,83,53,24,30.27,30.05,14,3,17,0.00
2013-1-6,46,40,33,41,37,31,95,89,68,30.11,30.04,11,2,16,0.46
2013-1-7,45,36,0,39,34,0,96,91,80,30.25,30.09,9,2,13,0.01
2013-1-8,58,44,30,44,37,30,98,79,57,30.25,30.17,7,2,10,0.00
2013-1-9,66,52,34,42,37,32,95,59,34,30.19,29.88,17,3,24,0.05
2013-1-10,42,34,28,36,30,24,96,85,61,30.12,29.93,16,3,22,0.04
2013-1-11,42,32,25,32,25,20,87,75,59,30.23,30.12,11,3,17,0.00
2013-1-12,42,31,0,30,23,0,87,68,48,30.24,30.14,9,2,13,0.00
2013-1-13,42,32,0,30,25,0,87,74,50,30.24,30.14,10,2,13,0.00
2013-1-14,41,33,25,30,26,19,85,74,60,30.41,30.20,10,2,13,0.00
2013-1-15,50,38,28,32,27,24,87,68,39,30.49,30.41,7,2,9,0.00
2013-1-16,59,41,0,34,25,0,69,47,30,30.45,30.26,7,2,9,0.00
2013-1-17,66,49,40,35,28,22,57,45,22,30.28,30.17,8,3,11,0.00
2013-1-18,66,51,42,34,27,21,55,41,18,30.22,30.12,9,2,10,0.00
2013-1-19,66,50,41,36,28,21,56,42,19,30.26,30.15,8,2,12,0.00
2013-1-20,62,50,42,34,27,21,56,41,25,30.23,30.12,8,2,10,0.00
2013-1-21,67,52,40,35,24,18,47,35,18,30.18,30.12,7,2,10,0.00
2013-1-22,70,51,42,37,24,12,58,36,11,30.30,30.04,9,2,12,0.00
2013-1-23,60,51,41,40,26,14,69,40,21,30.10,30.02,20,4,29,0.00
2013-1-24,57,49,40,54,46,37,97,90,58,30.18,30.04,11,2,18,0.50
2013-1-25,56,49,44,52,48,44,99,96,85,30.18,30.01,8,1,12,0.02
2013-1-26,55,47,41,49,45,39,98,94,78,30.03,29.94,8,2,13,0.02
2013-1-27,48,38,31,41,35,29,96,87,65,30.09,29.95,11,3,17,0.05
2013-1-28,45,36,28,35,30,26,94,82,62,30.28,30.09,8,2,12,0.01
2013-1-29,48,37,31,37,33,28,93,85,65,30.33,30.27,7,2,11,0.00
2013-1-30,62,43,31,43,36,29,96,78,44,30.39,30.30,7,2,11,0.01
2013-1-31,62,49,38,44,36,33,81,64,41,30.32,30.20,9,2,10,0.00
2013-2-1,66,51,41,45,36,31,73,59,32,30.23,30.12,6,2,10,0.00
2013-2-2,62,52,44,42,35,29,66,54,39,30.28,30.19,7,2,7,0.00
2013-2-3,60,49,40,46,36,27,86,63,43,30.20,30.08,8,3,12,0.00
2013-2-4,62,50,38,48,39,31,89,67,48,30.17,30.05,6,2,11,0.00
2013-2-5,60,49,40,47,38,27,94,68,47,30.08,29.98,10,2,12,0.00
2013-2-6,51,43,36,44,38,29,92,83,69,30.18,30.05,10,2,14,0.00
2013-2-7,52,40,33,39,35,29,95,81,57,30.18,29.96,9,3,14,0.17
2013-2-8,43,35,30,36,33,29,96,90,74,29.96,29.89,19,2,21,0.00
2013-2-9,49,37,27,36,32,25,93,82,58,30.12,29.95,11,2,13,0.00
2013-2-10,44,39,31,35,33,28,90,79,65,30.11,30.03,9,3,12,0.00
2013-2-11,52,39,30,34,30,24,91,71,49,30.29,30.08,9,3,13,0.00
2013-2-12,54,42,32,35,32,28,85,68,45,30.38,30.29,8,2,13,0.00
2013-2-13,58,44,35,39,33,28,79,66,38,30.35,30.22,9,2,11,0.00
2013-2-14,63,49,37,41,34,30,77,59,34,30.26,30.18,7,2,11,0.00
2013-2-15,66,52,41,44,34,26,67,52,30,30.28,30.23,8,2,12,0.00
2013-2-16,66,53,44,36,28,18,66,40,23,30.28,30.04,9,2,11,0.00
2013-2-17,60,49,40,37,28,17,70,45,30,30.04,29.94,10,3,13,0.00
2013-2-18,60,47,39,41,36,31,93,67,41,30.01,29.88,12,2,15,0.00
2013-2-19,41,36,30,38,34,30,97,92,76,29.90,29.68,15,2,23,0.36
2013-2-20,38,33,28,34,31,27,97,92,85,30.10,29.75,6,1,7,0.06
2013-2-21,46,38,33,38,34,32,96,87,68,30.19,30.06,7,2,11,0.00
2013-2-22,37,35,33,35,32,30,92,89,85,30.26,30.19,4,1,6,0.00
2013-2-25,57,48,39,37,35,32,77,63,47,30.17,30.15,12,4,12,0.00
2013-2-26,56,43,33,41,35,27,87,74,51,30.23,30.11,10,3,14,0.00
2013-2-27,60,46,36,41,36,29,90,69,47,30.37,30.22,8,3,15,0.00
2013-2-28,62,49,39,43,36,30,76,63,44,30.45,30.35,13,3,16,0.00
2013-3-1,73,54,42,46,38,31,83,57,25,30.43,30.27,8,2,13,0.00
2013-3-2,76,61,48,38,32,28,54,36,18,30.28,30.06,9,2,15,0.00
2013-3-3,59,52,42,48,42,36,88,71,42,30.09,29.97,11,4,24,0.08
2013-3-4,62,50,38,47,41,35,90,72,52,30.11,30.02,8,2,15,0.00
2013-3-5,66,53,41,44,39,29,87,60,40,30.07,29.88,15,5,22,0.00
2013-3-6,49,44,39,44,38,30,95,83,47,30.05,29.92,20,5,28,0.51
2013-3-7,45,41,38,41,38,36,96,89,74,29.97,29.85,10,2,15,0.20
2013-3-8,48,41,35,42,38,33,97,89,73,30.04,29.76,16,2,18,0.11
2013-3-9,55,43,37,43,39,36,98,88,63,30.31,30.04,8,2,12,0.00
2013-3-10,61,48,35,45,40,33,95,75,55,30.37,30.27,10,3,13,0.01
2013-3-11,65,52,38,49,42,35,88,72,50,30.28,30.10,11,3,12,0.00
2013-3-12,73,57,43,51,41,30,80,56,39,30.14,30.06,11,3,12,0.00
2013-3-13,77,62,48,49,40,30,60,46,29,30.16,30.06,8,2,12,0.00
2013-3-14,77,63,51,51,40,32,58,43,27,30.11,30.03,8,3,12,0.00
2013-3-15,71,60,52,55,45,36,83,58,40,30.05,29.96,9,2,14,0.00
2013-3-16,69,57,46,55,45,37,85,64,37,30.02,29.95,11,3,17,0.00
2013-3-17,68,54,44,42,36,30,70,52,26,30.05,29.97,13,2,16,0.00
2013-3-18,66,53,43,45,37,28,71,55,34,30.07,30.00,11,3,13,0.00
2013-3-19,68,56,45,47,41,37,91,58,36,30.15,30.04,10,3,15,0.02
2013-3-20,66,54,48,51,44,38,94,73,39,30.15,30.04,14,3,19,0.10
2013-3-21,62,52,42,50,44,39,87,74,58,30.05,29.91,15,3,16,0.00
2013-3-22,58,48,40,46,38,27,89,70,38,30.04,29.92,9,3,14,0.00
2013-3-23,60,49,38,41,36,29,76,63,47,30.11,30.03,10,3,15,0.00
2013-3-24,66,53,40,45,40,34,81,63,44,30.09,29.96,8,3,14,0.00
2013-3-25,68,55,43,46,40,35,77,60,37,30.00,29.89,9,2,15,0.00
2013-3-26,68,55,46,45,40,36,71,57,37,29.94,29.88,11,3,16,0.00
2013-3-27,67,54,45,51,42,37,84,66,44,29.99,29.89,12,3,15,0.02
2013-3-28,68,55,46,50,45,39,85,71,43,30.06,29.98,10,3,15,0.00
2013-3-29,74,58,45,46,41,36,75,56,35,30.08,30.00,13,2,15,0.00
2013-3-30,78,61,49,49,42,36,81,53,32,30.04,29.91,13,3,16,0.00
2013-3-31,66,55,45,50,46,41,97,74,47,30.04,29.94,15,4,19,0.61
2013-4-1,60,49,42,50,45,41,95,87,60,30.11,30.01,13,2,18,0.18
2013-4-2,65,52,40,50,45,37,93,76,56,30.15,30.06,9,2,14,0.00
2013-4-3,72,58,46,55,48,39,91,70,53,30.12,29.97,7,2,12,0.00
2013-4-4,69,55,50,54,47,40,95,75,49,30.10,29.97,8,2,15,0.07
2013-4-5,63,54,45,51,44,40,88,72,49,30.10,30.05,12,3,17,0.00
2013-4-6,65,54,44,50,44,39,88,70,43,30.13,30.05,11,3,14,0.00
2013-4-7,68,55,43,50,44,38,88,69,47,30.10,29.81,19,4,26,0.00
2013-4-8,57,46,36,45,37,19,96,74,29,29.89,29.66,17,4,23,0.13
2013-4-9,65,50,35,38,31,24,67,49,32,30.05,29.89,11,4,16,0.00
2013-4-10,72,56,41,45,37,27,73,50,33,30.18,30.04,8,3,13,0.00
2013-4-11,71,60,48,49,46,42,81,62,41,30.04,29.77,12,3,15,0.00
2013-4-12,74,61,49,53,48,44,86,65,43,29.85,29.77,10,3,13,0.00
2013-4-13,74,61,49,51,46,41,82,59,35,29.83,29.72,12,3,15,0.00
2013-4-14,70,57,47,50,40,31,71,55,30,29.79,29.73,12,3,17,0.00
2013-4-15,61,48,39,44,37,34,85,67,41,29.82,29.74,16,4,20,0.00
2013-4-16,53,40,32,41,34,27,92,77,52,30.07,29.82,31,3,37,0.06
2013-4-17,62,47,34,32,26,18,75,45,25,30.20,30.07,13,4,18,0.00
2013-4-18,68,53,39,34,30,25,61,44,26,30.26,30.18,10,3,16,0.00
2013-4-19,74,59,44,42,38,33,67,47,29,30.24,30.02,9,3,17,0.00
2013-4-20,77,61,48,48,43,38,71,54,33,30.04,29.94,15,3,16,0.00
2013-4-21,79,65,50,50,46,42,79,54,32,29.99,29.90,10,3,15,0.00
2013-4-22,81,66,54,51,47,40,73,52,30,29.95,29.78,11,3,15,0.00
2013-4-23,82,66,55,50,45,38,69,49,24,29.85,29.78,11,3,17,0.00
2013-4-24,80,64,51,46,41,38,62,45,25,29.82,29.72,10,3,15,0.00
2013-4-25,72,60,51,50,44,38,71,57,41,30.04,29.80,8,3,13,0.00
2013-4-26,77,62,50,52,47,44,81,61,36,30.15,30.04,10,3,13,0.00
2013-4-27,82,68,54,51,48,46,76,53,30,30.15,29.99,9,2,15,0.00
2013-4-28,85,70,56,53,47,42,68,46,26,30.00,29.82,11,3,14,0.00
2013-4-29,85,71,57,53,47,43,65,45,27,29.84,29.68,11,3,15,0.00
2013-4-30,81,68,56,53,46,41,71,48,26,29.74,29.66,13,3,17,0.00
2013-5-1,81,67,55,46,42,35,65,43,21,30.05,29.74,10,3,14,0.00
2013-5-2,85,69,57,44,37,27,46,32,20,30.12,30.03,10,2,20,0.00
2013-5-3,86,70,56,48,42,36,57,39,19,30.03,29.74,9,2,15,0.00
2013-5-4,83,68,54,48,40,34,66,39,18,29.74,29.50,11,3,16,0.01
2013-5-5,73,63,53,44,38,28,69,42,28,29.76,29.53,11,4,18,0.00
2013-5-6,72,56,47,47,44,0,92,65,36,29.94,29.76,13,4,21,0.66
2013-5-7,57,51,47,53,48,45,97,91,78,30.02,29.91,8,2,12,0.08
2013-5-8,62,55,50,52,50,47,96,83,65,30.08,30.01,10,2,12,0.00
2013-5-9,70,59,48,55,50,44,91,74,57,30.09,30.02,8,2,13,0.00
2013-5-10,81,66,51,58,53,46,89,66,40,30.12,30.03,9,2,12,0.00
2013-5-11,88,71,58,58,53,48,75,55,28,30.09,29.98,9,2,12,0.00
2013-5-12,91,77,62,55,49,41,62,41,20,30.06,29.92,10,3,15,0.00
2013-5-13,92,78,61,52,47,42,52,34,20,29.99,29.83,9,2,14,0.00
2013-5-14,82,69,60,53,47,40,59,46,28,29.87,29.79,10,3,11,0.00
2013-5-15,83,67,57,52,45,36,67,48,22,29.93,29.86,13,3,16,0.00
2013-5-16,65,60,52,50,46,35,80,61,48,29.92,29.86,11,2,11,0.00
2013-5-17,72,60,49,50,43,36,86,58,30,29.97,29.88,17,4,17,0.00
2013-5-18,76,62,47,45,40,34,69,47,24,30.04,29.97,16,3,16,0.00
2013-5-19,80,62,50,47,41,36,65,47,27,30.01,29.89,12,2,13,0.00
2013-5-20,83,68,54,48,42,38,64,42,23,29.95,29.88,9,3,14,0.00
2013-5-21,83,68,55,48,40,31,60,38,17,29.89,29.76,13,4,16,0.00
2013-5-22,67,56,45,43,32,23,71,42,22,29.83,29.74,21,4,21,0.00
2013-5-23,69,57,41,35,30,26,62,38,21,29.94,29.83,15,4,15,0.00
2013-5-24,77,59,44,38,35,32,64,43,23,29.95,29.87,9,3,17,0.00
2013-5-25,76,62,48,41,35,31,58,40,22,29.94,29.90,14,3,18,0.00
2013-5-26,74,61,47,45,39,32,67,45,32,30.01,29.94,13,4,16,0.00
2013-5-27,72,61,49,48,44,40,74,55,35,30.01,29.92,11,3,18,0.00
2013-5-28,74,63,53,54,48,44,81,61,39,29.93,29.80,16,4,21,0.00
2013-5-29,77,65,54,52,49,44,82,59,39,29.86,29.76,11,3,15,0.00
2013-5-30,80,66,53,52,46,40,79,52,26,29.88,29.82,13,4,15,0.00
2013-5-31,84,69,54,48,44,39,58,42,26,29.91,29.85,9,2,14,0.00
2013-6-1,94,75,60,52,46,41,55,38,19,29.88,29.72,10,3,14,0.00
2013-6-2,92,77,64,50,44,38,45,32,18,29.72,29.56,15,3,15,0.00
2013-6-3,89,75,62,54,48,41,56,40,28,29.71,29.59,10,3,17,0.00
2013-6-4,89,74,63,57,54,50,66,51,32,29.81,29.70,7,2,13,0.00
2013-6-5,88,77,62,59,55,52,71,49,31,29.86,29.78,13,3,13,0.00
2013-6-6,91,74,64,60,55,51,67,54,32,29.83,29.72,9,2,15,0.00
2013-6-7,97,80,65,62,56,47,57,44,29,29.78,29.65,9,2,12,0.00
2013-6-8,102,86,70,64,56,45,53,37,22,29.67,29.58,10,3,14,0.00
2013-6-9,91,81,72,61,57,52,61,45,31,29.68,29.62,10,3,15,0.00
2013-6-10,77,68,60,56,53,48,73,60,44,29.87,29.63,11,3,18,0.00
2013-6-11,88,71,57,54,47,39,65,45,26,29.91,29.81,9,3,16,0.00
2013-6-12,88,73,62,55,43,32,49,36,18,29.86,29.81,10,3,17,0.00
2013-6-13,82,68,54,42,36,29,46,33,15,29.96,29.85,12,4,17,0.00
2013-6-14,84,69,56,46,39,35,49,35,21,29.89,29.75,11,3,14,0.00
2013-6-15,86,72,56,44,37,29,48,31,15,29.87,29.77,12,3,17,0.00
2013-6-16,86,73,58,46,40,36,45,32,20,29.94,29.87,17,4,21,0.00
2013-6-17,85,71,58,47,42,33,53,37,18,29.95,29.88,15,4,17,0.00
2013-6-18,77,66,55,47,41,36,56,41,24,29.89,29.81,14,4,18,0.00
2013-6-19,76,62,48,44,39,33,68,44,26,29.93,29.85,14,4,18,0.00
2013-6-20,82,65,50,42,37,32,51,38,21,29.91,29.84,14,4,17,0.00
2013-6-21,84,67,55,45,40,36,51,38,21,29.87,29.81,14,3,17,0.00
2013-6-22,87,71,57,46,41,37,51,36,20,29.85,29.74,11,3,15,0.00
2013-6-23,80,68,59,50,44,40,63,43,30,29.77,29.70,9,3,19,0.00
2013-6-24,70,63,59,59,53,46,88,70,58,29.87,29.72,6,2,10,0.01
2013-6-25,85,72,61,58,56,53,79,59,39,29.94,29.86,12,3,15,0.00
2013-6-26,89,76,62,60,57,53,74,54,36,29.95,29.88,10,3,15,0.00
2013-6-27,95,80,66,62,57,54,68,48,30,29.98,29.92,13,3,16,0.00
2013-6-28,98,84,70,61,58,56,61,43,28,29.94,29.81,13,3,16,0.00
2013-6-29,101,86,71,62,57,54,57,39,23,29.84,29.69,11,4,17,0.00
2013-6-30,101,87,74,61,57,53,54,38,21,29.74,29.65,12,3,16,0.00
2013-7-1,101,88,75,63,56,52,46,35,22,29.75,29.68,11,3,14,0.00
2013-7-2,99,86,74,62,56,51,49,37,24,29.82,29.71,11,3,17,0.00
2013-7-3,101,86,74,61,58,55,54,41,25,29.78,29.64,12,3,14,0.00
2013-7-4,100,87,73,67,61,56,58,42,25,29.67,29.57,11,3,16,0.00
2013-7-5,101,90,75,69,58,43,62,38,17,29.61,29.55,13,4,18,0.00
2013-7-6,98,82,70,55,51,46,48,36,19,29.65,29.60,14,4,18,0.00
2013-7-7,103,86,71,51,46,38,41,28,11,29.72,29.65,16,4,17,0.00
2013-7-8,103,86,71,46,40,32,34,21,10,29.85,29.72,11,4,19,0.00
2013-7-9,101,87,72,46,37,31,29,18,9,29.91,29.83,16,3,18,0.00
2013-7-10,101,86,72,52,43,35,32,23,11,29.86,29.75,12,3,17,0.00
2013-7-11,96,84,73,57,46,32,43,28,14,29.79,29.71,14,4,19,0.00
2013-7-12,94,79,67,52,43,39,43,29,16,29.80,29.75,14,3,17,0.00
2013-7-13,98,81,65,48,42,37,42,28,14,29.85,29.79,14,3,19,0.00
2013-7-14,99,82,69,47,42,37,34,25,15,29.86,29.76,12,3,17,0.00
2013-7-15,96,82,70,53,45,42,39,29,16,29.77,29.66,12,4,21,0.00
2013-7-16,92,78,66,50,44,40,44,32,19,29.88,29.70,13,4,17,0.00
2013-7-17,92,78,65,52,45,41,43,32,22,29.94,29.88,13,4,16,0.00
2013-7-18,96,81,67,52,47,42,48,32,20,29.93,29.81,11,3,14,0.00
2013-7-19,99,83,69,53,49,46,44,32,18,29.83,29.70,12,3,15,0.00
2013-7-20,101,85,74,56,52,48,49,34,18,29.73,29.61,11,3,15,0.00
2013-7-21,102,88,75,57,51,46,46,31,18,29.74,29.63,15,3,17,0.00
2013-7-22,94,82,74,66,55,49,74,41,25,29.82,29.71,11,3,18,0.01
2013-7-23,95,80,72,63,59,47,70,50,25,29.89,29.80,10,3,16,0.01
2013-7-24,98,84,71,58,56,53,59,40,24,29.86,29.76,10,3,17,0.00
2013-7-25,97,85,74,61,58,55,52,40,28,29.87,29.79,8,2,15,0.00
2013-7-26,100,86,74,62,56,49,56,38,19,29.93,29.85,12,4,17,0.00
2013-7-27,96,85,73,59,51,45,48,33,18,29.86,29.73,14,4,18,0.00
2013-7-28,97,83,73,55,49,44,44,32,18,29.73,29.66,14,3,17,0.00
2013-7-29,95,84,69,58,50,45,47,32,21,29.86,29.76,13,4,17,0.00
2013-7-30,94,80,69,55,49,46,48,35,20,29.94,29.86,9,3,15,0.00
2013-7-31,94,80,69,57,50,42,52,37,18,29.93,29.84,16,3,17,0.00
2013-8-1,90,78,65,47,40,34,45,28,14,29.90,29.82,12,4,19,0.00
2013-8-2,90,76,62,44,40,36,39,28,19,29.86,29.79,12,4,17,0.00
2013-8-3,93,78,63,47,41,37,44,28,17,29.86,29.80,14,3,16,0.00
2013-8-4,93,79,66,47,43,40,41,29,18,29.87,29.81,12,3,17,0.00
2013-8-5,94,79,65,50,43,39,44,29,18,29.88,29.80,12,4,16,0.00
2013-8-6,91,78,67,50,44,40,42,30,21,29.88,29.82,15,3,16,0.00
2013-8-7,85,74,64,55,47,43,49,40,27,29.94,29.87,14,4,17,0.00
2013-8-8,84,71,60,52,47,44,57,43,28,29.90,29.82,13,3,17,0.00
2013-8-9,86,72,60,50,45,43,56,40,24,29.87,29.81,13,3,17,0.00
2013-8-10,87,74,62,48,45,43,51,37,22,29.91,29.86,14,3,19,0.00
2013-8-11,89,75,62,49,46,43,52,37,24,29.91,29.82,14,3,16,0.00
2013-8-12,93,78,64,51,46,44,54,35,19,29.88,29.82,12,3,16,0.00
2013-8-13,96,81,66,48,44,41,43,29,17,29.89,29.81,13,3,15,0.00
2013-8-14,96,82,68,45,39,33,36,24,11,29.86,29.78,9,3,18,0.00
2013-8-15,98,82,68,37,33,27,26,18,10,29.86,29.80,11,3,17,0.00
2013-8-16,99,83,69,48,39,32,28,22,14,29.87,29.80,11,3,16,0.00
2013-8-17,98,83,72,48,45,42,38,27,16,29.85,29.72,13,3,18,0.00
2013-8-18,97,83,71,56,48,43,43,30,17,29.79,29.69,10,3,13,0.00
2013-8-19,102,86,74,62,51,46,52,31,19,29.80,29.68,20,4,29,0.00
2013-8-20,99,86,73,61,54,48,49,35,25,29.76,29.67,16,3,18,0.00
2013-8-21,99,83,72,57,49,35,52,34,12,29.78,29.71,11,3,15,0.00
2013-8-22,98,85,68,50,42,35,40,23,12,29.81,29.72,18,4,18,0.00
2013-8-23,90,75,66,54,42,36,40,30,22,29.77,29.68,12,3,17,0.00
2013-8-24,92,77,64,49,46,43,51,34,20,29.78,29.71,12,4,18,0.00
2013-8-25,91,76,64,54,48,44,49,37,24,29.84,29.77,12,4,18,0.00
2013-8-26,92,77,65,53,47,41,45,36,24,29.88,29.77,12,4,18,0.00
2013-8-27,92,78,66,57,50,44,50,39,26,29.80,29.70,10,2,18,0.00
2013-8-28,94,81,71,58,55,52,59,43,26,29.81,29.72,16,4,19,0.00
2013-8-29,95,80,70,56,53,49,56,40,25,29.91,29.81,10,3,15,0.00
2013-8-30,96,82,69,57,50,46,50,35,20,29.93,29.82,13,3,17,0.00
2013-8-31,93,81,71,55,50,45,45,35,26,29.87,29.77,7,2,13,0.00
2013-9-1,93,81,71,59,55,52,55,43,28,29.82,29.75,11,3,16,0.00
2013-9-2,92,79,70,64,59,56,62,51,35,29.82,29.74,15,3,20,0.00
2013-9-3,90,79,70,63,58,56,65,51,34,29.84,29.78,13,3,16,0.00
2013-9-4,91,80,70,62,57,55,61,47,32,29.89,29.81,9,3,17,0.00
2013-9-5,92,80,68,60,56,54,65,46,30,29.87,29.80,13,3,15,0.00
2013-9-6,92,78,67,58,54,46,63,45,28,29.87,29.76,12,3,16,0.00
2013-9-7,99,80,67,54,48,44,48,34,16,29.83,29.74,10,3,19,0.00
2013-9-8,96,81,69,50,43,35,37,27,16,29.78,29.66,13,3,17,0.00
2013-9-9,95,81,70,51,46,40,44,31,15,29.71,29.60,11,3,17,0.00
2013-9-10,93,80,69,51,46,43,41,31,20,29.75,29.64,13,3,16,0.00
2013-9-11,86,76,68,53,49,46,49,39,30,29.85,29.76,10,3,15,0.00
2013-9-12,87,76,65,55,52,49,58,45,31,29.87,29.78,12,3,15,0.00
2013-9-13,91,77,65,56,54,51,61,46,30,29.81,29.65,10,3,15,0.00
2013-9-14,92,79,67,59,55,53,62,46,30,29.70,29.60,10,2,15,0.00
2013-9-15,93,80,69,59,53,43,60,41,22,29.73,29.65,15,3,16,0.00
2013-9-16,91,76,65,53,48,43,51,39,25,29.77,29.67,10,3,17,0.00
2013-9-17,82,70,61,52,48,41,65,46,29,29.75,29.69,12,4,17,0.00
2013-9-18,81,68,58,51,45,41,56,45,33,29.80,29.73,13,3,19,0.00
2013-9-19,92,74,58,47,42,31,60,36,12,29.82,29.70,10,3,13,0.00
2013-9-20,87,74,63,47,39,30,49,29,21,29.75,29.67,14,4,18,0.00
2013-9-21,78,60,49,60,50,38,95,71,42,29.82,29.65,16,3,17,0.74
2013-9-22,71,56,44,53,48,42,92,75,49,29.94,29.81,10,2,14,0.01
2013-9-23,80,64,52,55,51,47,89,67,40,29.98,29.89,8,2,13,0.00
2013-9-24,81,68,55,54,48,41,69,51,31,29.94,29.78,12,3,17,0.00
2013-9-25,70,59,50,51,46,40,89,64,40,29.79,29.70,12,4,17,0.00
2013-9-26,70,56,45,46,39,34,81,55,28,29.93,29.70,13,4,18,0.00
2013-9-27,74,61,48,40,37,34,60,43,28,30.06,29.93,9,3,16,0.00
2013-9-28,82,66,51,42,38,34,60,38,19,30.08,29.98,10,3,15,0.00
2013-9-29,84,68,56,42,37,32,44,33,19,30.06,29.98,11,3,15,0.00
2013-9-30,81,67,57,50,43,35,60,43,26,30.00,29.87,12,3,14,0.00
2013-10-1,78,66,57,53,50,46,70,57,39,29.91,29.84,9,3,14,0.00
2013-10-2,78,65,55,54,47,40,81,55,29,29.91,29.84,13,3,15,0.00
2013-10-3,72,60,52,42,37,32,58,43,25,29.90,29.84,12,3,17,0.00
2013-10-4,75,60,47,37,35,33,57,40,23,30.11,29.90,10,3,14,0.00
2013-10-5,80,65,53,34,30,24,45,29,14,30.19,30.11,9,3,15,0.00
2013-10-6,83,68,55,35,31,25,38,26,14,30.13,29.98,9,3,16,0.00
2013-10-7,82,68,58,36,29,24,34,25,13,29.98,29.82,12,3,14,0.00
2013-10-8,78,65,55,35,30,26,41,28,18,29.83,29.63,12,3,16,0.00
2013-10-9,58,52,47,51,44,33,94,74,40,29.73,29.52,4,1,11,0.25
2013-10-10,68,55,45,50,46,43,95,73,47,29.99,29.74,9,2,11,0.00
2013-10-11,74,59,48,49,44,43,83,62,36,30.03,29.93,10,2,14,0.00
2013-10-12,74,60,49,46,42,40,72,54,34,29.97,29.85,12,2,15,0.00
2013-10-13,71,58,49,46,42,40,71,56,37,30.02,29.83,9,3,16,0.00
2013-10-14,73,60,49,45,41,38,71,52,31,30.09,29.97,8,2,13,0.00
2013-10-15,75,61,51,44,41,39,67,49,30,30.01,29.93,11,2,16,0.00
2013-10-16,78,64,53,40,35,32,56,37,21,30.09,30.00,14,3,15,0.00
2013-10-17,77,62,54,39,36,34,50,39,23,30.04,29.92,12,2,14,0.00
2013-10-18,82,64,52,39,33,26,53,35,16,30.03,29.96,11,2,11,0.00
2013-10-19,82,66,56,36,30,25,34,26,14,30.05,29.96,11,2,14,0.00
2013-10-20,80,66,56,36,31,26,35,28,17,29.99,29.87,9,2,12,0.00
2013-10-21,83,66,55,38,32,24,39,29,18,29.95,29.88,7,1,11,0.00
2013-10-22,84,70,59,36,28,22,29,21,12,29.97,29.86,10,2,13,0.00
2013-10-23,82,68,59,38,31,26,38,26,15,29.89,29.82,7,2,13,0.00
2013-10-24,78,64,55,42,37,31,50,37,24,30.01,29.88,14,3,14,0.00
2013-10-25,77,64,54,46,41,36,55,44,29,30.10,30.01,11,2,14,0.00
2013-10-26,80,66,54,43,38,26,57,38,24,30.10,29.98,10,2,12,0.00
2013-10-27,76,64,48,44,38,26,86,39,24,29.99,29.58,16,4,18,0.00
2013-10-28,52,45,41,47,43,39,96,91,74,29.89,29.61,12,3,19,0.56
2013-10-29,59,48,40,47,42,38,95,80,55,30.02,29.89,7,2,11,0.01
2013-10-30,63,50,40,44,41,37,87,72,49,30.12,30.02,10,2,11,0.00
2013-10-31,71,54,43,46,42,36,88,66,37,30.16,30.07,7,2,10,0.00
2013-11-1,77,60,48,38,34,29,57,41,18,30.16,30.02,9,2,11,0.00
2013-11-2,74,60,50,42,36,32,54,42,23,30.02,29.85,9,2,14,0.00
2013-11-3,65,55,48,43,37,34,68,52,41,29.90,29.83,9,2,11,0.00
2013-11-4,59,51,43,44,39,35,81,65,46,30.03,29.80,7,3,13,0.00
2013-11-5,65,51,38,38,35,30,77,56,36,30.26,30.04,7,2,11,0.00
2013-11-6,74,58,46,40,32,24,62,40,17,30.27,30.19,6,2,10,0.00
2013-11-7,73,61,52,38,30,26,45,32,18,30.19,30.04,6,2,10,0.00
2013-11-8,73,59,51,36,32,28,48,37,23,30.05,29.93,6,2,11,0.00
2013-11-9,73,61,50,38,35,31,53,39,26,30.03,29.96,7,2,9,0.00
2013-11-10,78,62,52,32,26,16,42,27,12,30.08,30.02,8,2,11,0.00
2013-11-11,78,62,51,33,25,19,33,26,12,30.16,30.05,8,2,13,0.00
2013-11-12,74,61,56,42,34,25,50,36,25,30.23,30.12,9,2,13,0.00
2013-11-13,71,59,51,44,40,36,68,52,34,30.19,30.06,9,3,10,0.00
2013-11-14,75,58,49,45,42,38,71,56,32,30.09,29.78,10,2,11,0.00
2013-11-15,61,50,46,44,41,40,79,70,55,29.78,29.69,7,2,9,0.00
2013-11-16,62,51,43,46,41,39,86,70,52,29.91,29.74,11,2,13,0.00
2013-11-17,63,52,43,44,40,38,85,66,45,30.08,29.91,10,2,11,0.00
2013-11-18,66,54,44,42,40,38,79,62,41,30.12,30.03,7,2,11,0.00
2013-11-19,63,53,46,47,43,39,90,69,51,30.06,29.95,8,2,12,0.02
2013-11-20,62,53,48,53,50,47,97,90,71,29.97,29.81,7,2,10,0.33
2013-11-21,58,50,43,51,47,40,97,90,74,29.93,29.80,7,1,10,0.63
2013-11-22,55,46,41,48,43,38,95,90,71,30.00,29.91,10,1,10,0.00
2013-11-23,60,47,40,44,40,37,94,77,54,30.12,29.98,10,1,13,0.00
2013-11-24,60,48,40,44,40,37,90,75,54,30.26,30.12,8,1,12,0.00
2013-11-25,62,50,41,45,41,37,87,71,52,30.32,30.25,8,1,10,0.00
2013-11-26,66,53,43,46,39,35,80,59,42,30.27,30.08,5,1,8,0.00
2013-11-27,68,55,46,38,35,33,61,48,29,30.08,29.84,6,2,13,0.00
2013-11-28,65,54,47,42,39,35,68,58,40,30.08,29.86,7,1,11,0.00
2013-11-29,66,54,47,40,38,35,68,57,37,30.21,30.07,7,1,9,0.00
2013-11-30,65,52,44,43,40,37,76,63,42,30.25,30.17,10,1,12,0.00
2013-12-1,66,53,44,43,40,36,74,62,41,30.34,30.21,9,2,12,0.00
2013-12-2,70,53,46,45,38,33,73,58,34,30.25,29.91,10,2,12,0.00
2013-12-3,50,44,34,47,39,32,97,85,55,29.91,29.73,7,2,15,0.44
2013-12-4,44,36,31,38,32,29,95,88,74,30.06,29.83,8,2,8,0.01
2013-12-5,44,34,29,33,28,25,93,79,58,30.18,30.04,11,2,13,0.01
2013-12-6,43,34,26,30,26,23,87,72,54,30.22,30.06,14,2,16,0.00
2013-12-7,38,32,24,34,29,20,96,89,68,30.21,29.97,11,3,22,0.35
2013-12-8,33,26,22,27,22,18,87,83,69,30.34,30.22,6,2,7,0.00
2013-12-9,46,29,22,28,22,18,88,77,38,30.46,30.33,8,2,9,0.00
2013-12-10,39,32,28,29,24,21,77,72,64,30.45,30.24,6,1,6,0.00
2013-12-11,43,37,34,28,26,23,73,64,52,30.26,30.22,4,1,6,0.00
2013-12-12,62,55,39,27,22,19,48,29,21,30.26,30.17,10,3,10,0.00
2013-12-13,53,45,37,22,7,0,65,52,39,30.27,30.22,6,2,8,0.00
2013-12-14,61,57,40,30,22,0,53,33,28,30.41,30.33,7,3,7,0.00
2013-12-15,64,56,48,34,29,26,46,36,28,30.34,30.25,6,3,9,0.00
2013-12-16,77,54,47,39,29,25,46,38,19,30.27,30.12,7,2,8,0.00
2013-12-17,73,60,53,41,31,27,42,33,19,30.20,30.00,8,2,11,0.00
2013-12-18,69,58,49,42,35,27,67,42,28,30.01,29.67,12,3,13,0.00
2013-12-19,50,44,39,43,39,36,91,81,65,29.86,29.60,7,2,10,0.01
2013-12-20,50,41,33,40,36,31,93,83,66,30.01,29.86,8,2,11,0.00
2013-12-21,52,43,37,40,36,32,88,77,57,30.12,29.97,6,2,9,0.00
2013-12-22,59,46,35,39,35,31,87,65,44,30.34,30.12,7,2,9,0.00
2013-12-23,66,50,42,37,34,31,69,55,31,30.41,30.32,9,2,11,0.00
2013-12-24,62,52,43,40,35,28,66,54,39,30.32,30.20,9,2,9,0.00
2013-12-25,69,54,42,35,28,19,68,38,25,30.32,30.22,8,2,9,0.00
2013-12-26,68,54,46,34,26,20,46,35,20,30.27,30.17,6,2,8,0.00
2013-12-27,70,55,46,33,22,15,43,29,15,30.25,30.10,7,2,13,0.00
2013-12-28,62,50,40,35,22,12,56,34,20,30.10,29.99,7,2,10,0.00
2013-12-29,66,50,37,30,24,18,60,37,16,30.22,30.08,6,2,9,0.00
2013-12-30,70,54,45,27,22,18,36,30,15,30.26,30.18,8,2,9,0.00
2013-12-31,66,51,44,30,23,17,45,34,19,30.24,30.12,7,2,8,0.00
2014-1-1,68,52,41,33,28,24,52,40,21,30.21,30.12,7,2,11,0.00
2014-1-2,68,55,47,32,27,22,45,34,19,30.18,30.05,8,2,11,0.00